Weather History for Dayton Wright, OH

Change the Weather History Date:

Thursday, July 11, 2013

  Actual Average (KFFO) Record (KFFO)
Temperature  
Mean Temperature 72 °F -  
Max Temperature 80 °F 81 °F 95 °F (2011)
Min Temperature 64 °F 60 °F 50 °F (1996)
Cooling Degree Days 8    
Growing Degree Days 22 (Base 50)    
Moisture  
Dew Point 62 °F    
Average Humidity 72    
Maximum Humidity 90    
Minimum Humidity 52    
Precipitation  
Precipitation 0.00 in - - ()
Sea Level Pressure  
Sea Level Pressure 29.98 in    
Wind  
Wind Speed 4 mph (NNE)    
Max Wind Speed 14 mph    
Max Gust Speed 21 mph    
Visibility 10 miles    
Events      
Averages and records for this station are not official NWS values.
T = Trace of Precipitation, MM = Missing Value Source: NWS Daily Summary

Daily Weather History Graph

Daily Weather History Graph

Search for Another Location

Airport:

Trip Planner

Search our weather history database for the weather conditions in past years. The results will help you decide how hot, cold, wet, or windy it might be!

Date:

Astronomy

Jul. 11, 2013 Rise Set
Actual Time 6:19 AM EDT 9:05 PM EDT
Civil Twilight 5:47 AM EDT 9:37 PM EDT
Nautical Twilight 5:07 AM EDT 10:17 PM EDT
Astronomical Twilight 4:21 AM EDT 11:02 PM EDT
Moon 9:35 AM EDT (7/11) 10:46 PM EDT (7/11)
Length of Visible Light 15h 49m
Length of Day
14h 46m
Waxing Crescent, 10% of the Moon is Illuminated
Jul 11
Waxing Crescent
Jul 15
First Quarter
Jul 22
Full
Jul 29
Last Quarter
Aug 6
New

Hourly Weather History & Observations

Time (EDT) Temp. Dew Point Humidity Pressure Visibility Wind Dir Wind Speed Gust Speed Precip Events Conditions
12:53 AM 66.9 °F 64.0 °F 90% 29.94 in 10.0 mi South 3.5 mph - N/A   Scattered Clouds
1:53 AM 68.0 °F 64.0 °F 87% 29.94 in 10.0 mi Calm Calm - N/A   Mostly Cloudy
2:53 AM 68.0 °F 64.9 °F 90% 29.93 in 10.0 mi Calm Calm - N/A   Overcast
3:53 AM 68.0 °F 64.9 °F 90% 29.94 in 10.0 mi Calm Calm - N/A   Overcast
4:02 AM 69.8 °F 64.4 °F 83% 29.95 in 10.0 mi Calm Calm - N/A   Overcast
4:53 AM 69.1 °F 66.0 °F 90% 29.95 in 10.0 mi Calm Calm - N/A   Overcast
5:01 AM 69.8 °F 66.2 °F 88% 29.97 in 10.0 mi Calm Calm - N/A   Overcast
5:11 AM 69.8 °F 66.2 °F 88% 29.97 in 10.0 mi Calm Calm - N/A   Overcast
5:53 AM 68.0 °F 64.9 °F 90% 29.95 in 10.0 mi NNW 6.9 mph - N/A   Scattered Clouds
6:53 AM 66.0 °F 60.1 °F 81% 29.96 in 10.0 mi North 6.9 mph - N/A   Clear
7:53 AM 66.9 °F 60.1 °F 79% 29.97 in 10.0 mi NNE 3.5 mph - N/A   Overcast
8:53 AM 68.0 °F 61.0 °F 78% 29.98 in 10.0 mi NNE 6.9 mph - N/A   Mostly Cloudy
9:53 AM 71.1 °F 62.1 °F 73% 29.99 in 10.0 mi Variable 3.5 mph - N/A   Overcast
10:53 AM 73.0 °F 64.0 °F 73% 29.99 in 10.0 mi North 6.9 mph - N/A   Overcast
11:45 AM 75.2 °F 64.4 °F 69% 30.01 in 10.0 mi NE 8.1 mph - N/A   Mostly Cloudy
11:53 AM 75.0 °F 64.9 °F 71% 29.99 in 10.0 mi ENE 6.9 mph - N/A   Mostly Cloudy
12:03 PM 75.2 °F 64.4 °F 69% 30.01 in 10.0 mi East 6.9 mph - N/A   Mostly Cloudy
12:28 PM 75.2 °F 64.4 °F 69% 30.01 in 10.0 mi NE 10.4 mph - N/A   Overcast
12:35 PM 75.2 °F 62.6 °F 65% 30.01 in 10.0 mi NE 8.1 mph - N/A   Mostly Cloudy
12:53 PM 78.1 °F 64.0 °F 62% 29.99 in 10.0 mi NE 10.4 mph - N/A   Scattered Clouds
1:53 PM 75.9 °F 62.1 °F 62% 29.99 in 10.0 mi NE 10.4 mph - N/A   Mostly Cloudy
2:53 PM 75.9 °F 59.0 °F 56% 29.98 in 10.0 mi North 9.2 mph 16.1 mph N/A   Mostly Cloudy
3:53 PM 78.1 °F 62.1 °F 58% 29.98 in 10.0 mi NNE 13.8 mph 20.7 mph N/A   Mostly Cloudy
4:53 PM 79.0 °F 61.0 °F 54% 29.98 in 10.0 mi North 11.5 mph 18.4 mph N/A   Partly Cloudy
5:53 PM 77.0 °F 60.1 °F 56% 29.99 in 10.0 mi North 12.7 mph 20.7 mph N/A   Mostly Cloudy
6:53 PM 75.9 °F 57.0 °F 52% 30.00 in 10.0 mi North 13.8 mph - N/A   Clear
7:53 PM 73.9 °F 55.0 °F 52% 30.00 in 10.0 mi North 11.5 mph - N/A   Clear
8:53 PM 70.0 °F 53.1 °F 55% 30.00 in 10.0 mi NNE 8.1 mph - N/A   Clear
9:53 PM 66.9 °F 54.0 °F 63% 30.01 in 10.0 mi NNE 4.6 mph - N/A   Clear
10:53 PM 66.0 °F 55.0 °F 68% 30.02 in 10.0 mi Calm Calm - N/A   Clear
11:53 PM 64.9 °F 55.0 °F 70% 30.03 in 10.0 mi Calm Calm - N/A   Clear